sat.trackr.live / text

‹ back to catalog

STARLINK-34966

NORAD 65257 · 2025-179Y

PAYLOAD ACTIVE UNKNOWN

§ Identity

Operator
Country
US
Launch date
2025-08-18
Launch site
AFWTR
Launch vehicle
Mass (kg)
RCS (m²)

Purposes: comms

External: N2YO · Heavens-Above · Gunter

§ Orbital elements

Epoch: 2026-09-20T13:58:23.983392Z

Period
93.91 min
Inclination
97.2825°
Eccentricity
0.0000834
Mean motion
15.33447390 rev/d
Perigee alt
465.0 km
Apogee alt
466.1 km
Semi-major
6,843.7 km
B*
3.0688e-4
RAAN
302.8799°
Arg perigee
120.6373°
Mean anomaly
239.4952°
Rev number
6,143

§ Raw data

STARLINK-349661 65257U 25179Y   26263.58222203  .00009846  00000+0  30688-3 0  99962 65257  97.2825 302.8799 0000834 120.6373 239.4952 15.33447390 61432

JSON: /api/v1/satellites/65257 · /tle

For live sub-satellite position, see the globe view (requires WebGL).

§ Visibility from observer

Set your observer location to see the next 7 days of passes ≥ 10°. The values pass through the URL so the page stays shareable.

No JS? Fill the form by hand. The geolocation button needs JavaScript.